1509429600.81,1344,6.25,72606.0,-15.51,-18.01,-18.07,0,*54
1509429602.02,1345,6.25,72606.0,-15.49,-18.49,-18.41,0,*52
1509429603.29,1346,6.25,72576.3,-15.49,-18.55,-18.35,0,*5F
1509429604.53,1347,6.25,72564.0,-15.49,-18.49,-18.31,0,*57
1509429605.79,1348,6.25,72598.5,-15.47,-18.59,-18.17,0,*53
1509429607.0,1349,6.25,72612.3,-15.49,-18.41,-18.21,0,*50
1509429608.24,1350,6.25,72596.0,-15.49,-18.35,-18.07,0,*5F
1509429609.51,1351,6.25,72582.0,-15.51,-18.69,-18.31,0,*5B
1509429610.78,1352,6.25,72570.5,-15.51,-19.23,-18.65,0,*56
1509429612.02,1353,6.25,72580.8,-15.53,-18.93,-18.41,0,*59
1509429613.28,1354,6.25,72594.5,-15.51,-18.93,-18.65,0,*5A
1509429614.55,1355,6.25,72530.0,-15.51,-18.79,-18.55,0,*5C
1509429615.81,1356,6.25,72558.5,-15.51,-18.31,-18.21,0,*50
1509429617.03,1357,6.25,72604.8,-15.53,-18.49,-18.65,0,*5C
1509429618.25,1358,6.25,72600.5,-15.53,-19.37,-19.47,0,*5A
1509429619.49,1359,6.25,72606.5,-15.53,-19.47,-19.61,0,*58
1509429620.71,1360,6.25,72584.3,-15.53,-19.75,-19.91,0,*5C
1509429621.92,1361,6.25,72600.5,-15.53,-19.91,-19.91,0,*57
1509429623.16,1362,6.25,72578.3,-15.53,-20.05,-19.85,0,*56
1509429624.39,1363,6.25,72600.0,-15.57,-20.09,-19.75,0,*50
1509429625.65,1364,6.25,72600.0,-15.53,-20.19,-19.85,0,*5D
1509429626.89,1365,6.25,72594.8,-15.53,-19.91,-19.23,0,*5A
1509429628.1,1366,6.25,72606.5,-15.53,-19.47,-18.79,0,*5C
1509429629.31,1367,6.25,72604.3,-15.53,-19.47,-18.83,0,*58
1509429630.53,1368,6.25,72588.0,-15.53,-19.13,-18.41,0,*58
1509429631.77,1369,6.25,72598.3,-15.53,-18.93,-18.69,0,*5A
1509429633.02,1370,6.25,72596.5,-15.53,-19.23,-19.13,0,*54
1509429634.32,1371,6.25,72580.8,-15.57,-19.27,-19.31,0,*55
1509429635.58,1372,6.25,72590.5,-15.57,-19.31,-19.17,0,*55
1509429636.82,1373,6.25,72590.5,-15.57,-19.13,-18.99,0,*53
1509429638.05,1374,6.25,72590.0,-15.57,-19.47,-19.03,0,*57
1509429639.28,1375,6.25,72580.0,-15.59,-19.41,-18.73,0,*58
1509429640.53,1376,6.25,72554.5,-15.59,-19.31,-18.59,0,*54
1509429641.81,1377,6.25,72556.8,-15.57,-18.89,-18.35,0,*53
1509429643.01,1378,6.25,72546.0,-15.59,-18.73,-18.25,0,*56
1509429644.27,1379,6.25,72536.5,-15.57,-18.35,-17.69,0,*5C
1509429645.48,1380,6.25,72522.5,-15.59,-17.49,-17.31,0,*5D
1509429646.74,1381,6.25,72510.0,-15.57,-17.45,-17.31,0,*5E
1509429647.96,1382,6.25,72544.3,-15.59,-17.63,-17.31,0,*57
1509429649.21,1383,6.25,72548.3,-15.57,-17.79,-17.49,0,*5C
1509429650.47,1384,6.25,72564.3,-15.59,-17.93,-17.45,0,*5D
1509429651.75,1385,6.25,72548.8,-15.57,-17.63,-17.45,0,*5D
1509429653.02,1386,6.25,72552.0,-15.57,-17.35,-17.07,0,*5B
1509429654.28,1387,6.25,72572.0,-15.57,-17.55,-17.31,0,*59
1509429655.5,1388,6.25,72546.3,-15.59,-17.55,-17.31,0,*58
1509429656.73,1389,6.25,72546.8,-15.59,-17.55,-17.31,0,*59
1509429657.99,1390,6.25,72536.3,-15.57,-17.49,-17.17,0,*56
1509429659.28,1391,6.19,72522.3,-15.57,-17.45,-17.17,0,*5B
1509429660.53,1392,6.25,72534.5,-15.57,-17.31,-17.03,0,*5E
1509429661.76,1393,6.25,72536.3,-15.57,-16.93,-16.89,0,*55
1509429663.02,1394,6.25,72556.3,-15.57,-17.07,-16.93,0,*55
1509429664.25,1395,6.25,72552.0,-15.59,-17.17,-16.93,0,*5B
1509429665.51,1396,6.25,72548.8,-15.57,-16.93,-16.65,0,*52
1509429666.77,1397,6.25,72550.0,-15.57,-16.79,-16.65,0,*57
1509429668.04,1398,6.25,72530.3,-15.57,-16.65,-16.59,0,*5A
1509429669.26,1399,6.25,72544.3,-15.53,-16.75,-16.55,0,*52
1509429670.47,1400,6.25,72556.5,-15.53,-16.45,-16.45,0,*57
1509429671.68,1401,6.25,72562.3,-15.53,-16.55,-16.45,0,*57
1509429672.9,1402,6.25,72552.5,-15.53,-16.45,-16.55,0,*54
1509429674.13,1403,6.25,72546.0,-15.53,-16.55,-16.55,0,*54
1509429675.34,1404,6.25,72522.5,-15.53,-16.55,-16.45,0,*52
1509429676.55,1405,6.25,72514.3,-15.53,-16.45,-16.45,0,*52
1509429677.77,1406,6.25,72518.3,-15.53,-16.55,-16.45,0,*50
1509429679.01,1407,6.25,72514.3,-15.51,-16.55,-16.55,0,*52
1509429680.23,1408,6.25,72504.8,-15.53,-16.55,-16.45,0,*5E
1509429681.46,1409,6.25,72500.3,-15.51,-16.45,-16.45,0,*5C
1509429682.7,1410,6.25,72522.8,-15.51,-16.59,-16.55,0,*58
1509429683.93,1411,6.25,72530.3,-15.51,-16.45,-16.45,0,*55
1509429685.17,1412,6.25,72524.5,-15.51,-16.55,-16.37,0,*52
1509429686.41,1413,6.25,72536.5,-15.51,-16.45,-16.41,0,*53
1509429687.65,1414,6.25,72570.0,-15.51,-16.45,-16.41,0,*54
1509429688.89,1415,6.25,72588.0,-15.51,-16.45,-16.41,0,*55
1509429690.12,1416,6.25,72578.0,-15.51,-16.45,-16.41,0,*56
1509429691.34,1417,6.25,72610.3,-15.49,-16.41,-16.37,0,*5B
1509429692.6,1418,6.25,72610.8,-15.47,-16.37,-16.31,0,*5D
1509429693.82,1419,6.25,72620.8,-15.49,-16.41,-16.37,0,*55
1509429695.04,1420,6.25,72610.3,-15.49,-16.41,-16.41,0,*5E
1509429696.25,1421,6.25,72592.3,-15.49,-16.45,-16.41,0,*5B
1509429697.49,1422,6.25,72582.3,-15.49,-16.37,-16.27,0,*5D
1509429698.73,1423,6.25,72594.0,-15.49,-16.37,-16.27,0,*5C
1509429699.95,1424,6.25,72564.8,-15.49,-16.41,-16.41,0,*5A
1509429701.17,1425,6.25,72578.3,-15.49,-16.41,-16.41,0,*5B
1509429702.38,1426,6.25,72598.8,-15.49,-16.37,-16.37,0,*58
1509429703.64,1427,6.25,72594.8,-15.49,-16.27,-16.23,0,*5D
1509429704.93,1428,6.25,72602.5,-15.47,-16.23,-16.23,0,*58
1509429706.19,1429,6.25,72600.8,-15.49,-16.27,-16.23,0,*53
1509429707.48,1430,6.25,72612.5,-15.47,-16.17,-16.17,0,*51
1509429708.78,1431,6.25,72580.5,-15.47,-16.17,-16.17,0,*50
1509429710.07,1432,6.19,72592.8,-15.47,-16.17,-16.09,0,*5C
1509429711.35,1433,6.25,72610.0,-15.47,-16.23,-16.23,0,*52
1509429712.64,1434,6.25,72618.8,-15.47,-16.17,-16.23,0,*52
1509429713.93,1435,6.25,72622.5,-15.47,-16.17,-16.17,0,*54
1509429715.22,1436,6.25,72608.5,-15.47,-16.23,-16.17,0,*50
1509429716.51,1437,6.25,72612.8,-15.47,-16.31,-16.31,0,*56
1509429717.73,1438,6.25,72622.3,-15.45,-16.31,-16.37,0,*5D
1509429719.0,1439,6.19,72618.8,-15.45,-16.23,-16.17,0,*5D
1509429720.28,1440,6.19,72584.8,-15.43,-16.31,-16.27,0,*55
1509429721.51,1441,6.25,72564.3,-15.45,-16.31,-16.37,0,*53
1509429722.77,1442,6.25,72586.3,-15.45,-16.23,-16.23,0,*56
1509429724.03,1443,6.19,72604.3,-15.45,-16.17,-16.09,0,*58
1509429725.32,1444,6.25,72604.5,-15.47,-16.23,-16.23,0,*52
1509429726.58,1445,6.19,72646.5,-15.45,-16.17,-16.17,0,*51
1509429727.84,1446,6.25,72640.8,-15.45,-16.23,-16.23,0,*52
1509429729.13,1447,6.19,72628.3,-15.43,-16.27,-16.17,0,*56
1509429730.37,1448,6.19,72630.3,-15.45,-16.37,-16.31,0,*5A
1509429731.62,1449,6.19,72632.5,-15.45,-16.31,-16.31,0,*5D
1509429732.9,1450,6.19,72618.5,-15.43,-16.31,-16.27,0,*54
1509429734.18,1451,6.19,72612.5,-15.43,-16.31,-16.31,0,*52
1509429735.39,1452,6.19,72616.0,-15.45,-16.37,-16.37,0,*57
1509429736.67,1453,6.19,72620.0,-15.43,-16.31,-16.31,0,*50
1509429737.9,1454,6.19,72624.3,-15.45,-16.37,-16.31,0,*57
1509429739.16,1455,6.19,72606.0,-15.45,-16.23,-16.23,0,*50
1509429740.45,1456,6.19,72602.8,-15.43,-16.17,-16.13,0,*51
1509429741.73,1457,6.19,72600.3,-15.43,-16.31,-16.27,0,*53
1509429743.01,1458,6.19,72590.5,-15.43,-16.27,-16.27,0,*5B
1509429744.29,1459,6.19,72618.5,-15.43,-16.31,-16.31,0,*5A
1509429745.56,1460,6.19,72626.8,-15.43,-16.31,-16.31,0,*50
1509429746.79,1461,6.19,72630.5,-15.45,-16.31,-16.37,0,*51
1509429748.07,1462,6.19,72628.5,-15.43,-16.31,-16.31,0,*52
1509429749.35,1463,6.19,72660.5,-15.43,-16.27,-16.31,0,*54
1509429750.62,1464,6.19,72662.8,-15.43,-16.13,-16.03,0,*55
1509429751.85,1465,6.19,72662.0,-15.43,-16.03,-16.03,0,*55
1509429753.08,1466,6.19,72654.3,-15.43,-16.03,-15.99,0,*56
1509429754.31,1467,6.19,72612.5,-15.43,-16.03,-15.99,0,*57
1509429755.6,1468,6.19,72624.0,-15.43,-16.17,-16.13,0,*5C
1509429756.89,1469,6.19,72624.8,-15.43,-16.13,-16.13,0,*59
1509429758.18,1470,6.19,72616.5,-15.43,-16.17,-16.17,0,*51
1509429759.45,1471,6.19,72616.0,-15.41,-16.17,-16.17,0,*52
1509429760.72,1472,6.19,72600.5,-15.41,-16.17,-16.17,0,*51
1509429762.0,1473,6.19,72600.5,-15.43,-16.27,-16.27,0,*52
1509429763.28,1474,6.19,72596.0,-15.43,-16.31,-16.31,0,*55
1509429764.55,1475,6.19,72624.8,-15.43,-16.31,-16.27,0,*53
1509429765.84,1476,6.19,72614.3,-15.43,-16.31,-16.17,0,*53
1509429767.1,1477,6.19,72624.0,-15.41,-16.17,-16.13,0,*50
1509429768.32,1478,6.19,72622.8,-15.41,-16.03,-16.03,0,*5B
1509429769.55,1479,6.19,72644.8,-15.41,-16.17,-16.03,0,*5F
1509429770.84,1480,6.19,72636.5,-15.39,-16.27,-16.27,0,*53
1509429772.1,1481,6.19,72618.8,-15.41,-16.31,-16.17,0,*59
1509429773.36,1482,6.19,72610.8,-15.41,-16.31,-16.31,0,*5E
1509429774.62,1483,6.19,72608.0,-15.41,-16.31,-16.27,0,*58
1509429775.88,1484,6.19,72586.8,-15.41,-16.17,-16.27,0,*5B
1509429777.15,1485,6.19,72564.3,-15.41,-16.17,-16.17,0,*59
1509429778.42,1486,6.19,72578.5,-15.41,-16.17,-16.17,0,*5A
1509429779.71,1487,6.19,72598.3,-15.39,-16.13,-16.23,0,*57
1509429780.98,1488,6.19,72592.0,-15.41,-16.17,-16.17,0,*54
1509429782.24,1489,6.19,72608.3,-15.41,-16.13,-16.13,0,*55
1509429783.53,1490,6.19,72608.5,-15.39,-16.13,-16.13,0,*52
1509429784.82,1491,6.19,72624.3,-15.39,-16.13,-16.13,0,*53
1509429786.09,1492,6.19,72608.0,-15.41,-16.13,-16.27,0,*58
1509429787.37,1493,6.19,72618.8,-15.39,-16.23,-16.27,0,*55
1509429788.63,1494,6.19,72618.5,-15.41,-16.27,-16.31,0,*5E
1509429789.85,1495,6.19,72618.3,-15.41,-16.41,-16.59,0,*51
1509429791.1,1496,6.19,72626.3,-15.41,-16.65,-16.79,0,*56
1509429792.36,1497,6.19,72614.5,-15.39,-16.69,-16.83,0,*51
1509429793.62,1498,6.19,72630.0,-15.39,-16.89,-17.11,0,*5A
1509429794.88,1499,6.19,72630.3,-15.41,-17.55,-17.93,0,*5E
1509429796.11,1500,6.19,72624.5,-15.39,-18.07,-17.49,0,*5F
1509429797.32,1501,6.19,72634.8,-15.41,-17.69,-17.31,0,*59
1509429798.53,1502,6.19,72626.8,-15.41,-17.31,-16.79,0,*5A
1509429799.76,1503,6.19,72614.5,-15.41,-16.79,-16.51,0,*5C
1509429800.99,1504,6.19,72622.8,-15.39,-16.55,-16.45,0,*5F
1509429802.22,1505,6.19,72596.3,-15.39,-16.45,-16.45,0,*5F
1509429803.49,1506,6.19,72604.0,-15.39,-16.41,-16.31,0,*5B
1509429804.76,1507,6.19,72596.0,-15.39,-16.31,-16.27,0,*5A
1509429806.05,1508,6.19,72584.0,-15.39,-16.27,-16.27,0,*52
1509429807.33,1509,6.19,72596.5,-15.39,-16.31,-16.27,0,*54
1509429808.58,1510,6.19,72612.3,-15.41,-16.31,-16.31,0,*54
1509429809.83,1511,6.19,72618.3,-15.39,-16.41,-16.75,0,*5D
1509429811.09,1512,6.19,72604.3,-15.39,-16.89,-17.03,0,*5A
1509429812.37,1513,6.19,72614.0,-15.39,-17.11,-17.17,0,*5E
1509429813.63,1514,6.19,72606.5,-15.39,-17.35,-17.25,0,*5E
1509429814.88,1515,6.19,72610.0,-15.39,-17.31,-17.11,0,*5C
1509429816.17,1516,6.19,72604.3,-15.39,-17.45,-17.03,0,*5F
1509429817.44,1517,6.19,72620.0,-15.39,-17.45,-16.75,0,*5E
1509429818.7,1518,6.19,72554.0,-15.39,-17.03,-16.45,0,*50
1509429819.93,1519,6.19,72568.5,-15.39,-16.89,-16.55,0,*53
1509429821.19,1520,6.19,72562.8,-15.37,-16.69,-16.31,0,*5B
1509429822.45,1521,6.19,72584.8,-15.37,-16.31,-16.31,0,*57
1509429823.68,1522,6.19,72580.5,-15.37,-16.41,-16.27,0,*54
1509429824.94,1523,6.19,72590.3,-15.37,-16.31,-16.23,0,*56
1509429826.2,1524,6.19,72592.3,-15.37,-16.27,-16.23,0,*56
1509429827.42,1525,6.19,72604.8,-15.37,-16.41,-16.41,0,*53
1509429828.69,1526,6.19,72614.8,-15.39,-16.31,-16.31,0,*5E
1509429829.92,1527,6.19,72618.3,-15.37,-16.31,-16.45,0,*52
1509429831.16,1528,6.19,72636.5,-15.37,-16.55,-16.69,0,*51
1509429832.4,1529,6.19,72612.5,-15.37,-16.69,-16.83,0,*5B
1509429833.64,1530,6.19,72586.8,-15.37,-16.69,-16.83,0,*53
1509429834.85,1531,6.19,72606.5,-15.37,-16.97,-16.75,0,*5A
1509429836.06,1532,6.19,72586.0,-15.37,-16.89,-16.89,0,*55
1509429837.27,1533,6.19,72604.3,-15.37,-16.83,-16.83,0,*54
1509429838.51,1534,6.19,72596.8,-15.37,-17.35,-17.17,0,*53
1509429839.74,1535,6.19,72612.8,-15.37,-17.49,-17.17,0,*59
1509429841.0,1536,6.19,72606.8,-15.35,-17.83,-17.25,0,*5F
1509429842.24,1537,6.19,72588.3,-15.37,-17.35,-17.03,0,*55
1509429843.48,1538,6.19,72570.0,-15.37,-17.35,-17.03,0,*5A
1509429844.77,1539,6.19,72582.5,-15.39,-17.25,-17.03,0,*54
1509429846.0,1540,6.19,72588.8,-15.39,-17.31,-16.97,0,*53
1509429847.23,1541,6.19,72588.0,-15.39,-17.49,-16.97,0,*5D
1509429848.47,1542,6.19,72584.0,-15.39,-16.97,-16.59,0,*5E
1509429849.71,1543,6.19,72572.3,-15.39,-16.83,-16.59,0,*5A
1509429850.95,1544,6.19,72586.0,-15.37,-16.55,-16.31,0,*56
1509429852.18,1545,6.19,72582.0,-15.37,-16.45,-16.31,0,*56
1509429853.42,1546,6.19,72558.3,-15.37,-16.55,-16.31,0,*54
1509429854.68,1547,6.19,72604.8,-15.37,-16.31,-16.31,0,*57
1509429855.88,1548,6.19,72520.3,-15.37,-16.59,-16.45,0,*55
1509429857.12,1549,6.19,72564.3,-15.39,-16.55,-16.41,0,*52
1509429858.36,1550,6.19,72566.3,-15.39,-16.55,-16.41,0,*5A
1509429859.64,1551,6.19,72562.0,-15.39,-16.31,-16.31,0,*5E
1509429860.88,1552,6.19,72564.3,-15.39,-16.45,-16.41,0,*59
1509429862.09,1553,6.19,72566.0,-15.37,-16.55,-16.41,0,*57
1509429863.33,1554,6.19,72578.8,-15.37,-16.45,-16.31,0,*56
1509429864.6,1555,6.19,72600.8,-15.39,-16.31,-16.31,0,*5A
1509429865.84,1556,6.19,72592.5,-15.37,-16.41,-16.27,0,*57
1509429867.06,1557,6.19,72576.8,-15.37,-16.41,-16.41,0,*56
1509429868.34,1558,6.19,72584.0,-15.39,-16.31,-16.27,0,*50
1509429869.62,1559,6.19,72566.0,-15.35,-16.23,-16.23,0,*5A
1509429870.88,1560,6.19,72588.0,-15.37,-16.23,-16.23,0,*52
1509429872.14,1561,6.19,72614.3,-15.37,-16.23,-16.23,0,*53
1509429873.37,1562,6.19,72614.5,-15.37,-16.31,-16.55,0,*52
1509429874.65,1563,6.19,72616.8,-15.35,-16.51,-16.65,0,*54
1509429875.89,1564,6.19,72624.0,-15.37,-16.69,-16.75,0,*5B
1509429877.16,1565,6.19,72636.0,-15.35,-16.97,-17.07,0,*5D
1509429878.42,1566,6.19,72636.8,-15.37,-17.25,-17.25,0,*54
1509429879.68,1567,6.19,72612.5,-15.37,-17.25,-17.17,0,*54
1509429880.88,1568,6.19,72578.3,-15.37,-17.31,-17.31,0,*5A
1509429882.16,1569,6.19,72598.5,-15.35,-17.11,-17.03,0,*5A
1509429883.4,1570,6.19,72600.0,-15.35,-17.31,-16.83,0,*59
1509429884.68,1571,6.19,72626.5,-15.35,-17.07,-16.51,0,*52
1509429885.94,1572,6.19,72630.0,-15.37,-16.69,-16.31,0,*5C
1509429887.17,1573,6.19,72622.3,-15.37,-16.45,-16.27,0,*54
1509429888.43,1574,6.19,72614.3,-15.37,-16.31,-16.27,0,*50
1509429889.68,1575,6.19,72592.0,-15.37,-16.31,-16.27,0,*51
1509429890.97,1576,6.19,72536.8,-15.35,-16.17,-16.17,0,*57
1509429892.27,1577,6.19,72554.3,-15.35,-16.09,-16.09,0,*56
1509429893.54,1578,6.19,72552.8,-15.37,-16.13,-16.09,0,*50
1509429894.81,1579,6.19,72562.8,-15.37,-16.13,-16.09,0,*51
1509429896.07,1580,6.19,72622.8,-15.35,-16.17,-16.03,0,*5B
1509429897.36,1581,6.19,72610.3,-15.35,-16.09,-16.09,0,*5F
1509429898.65,1582,6.19,72590.0,-15.35,-16.09,-16.09,0,*5C
1509429899.94,1583,6.19,72648.8,-15.35,-16.17,-16.17,0,*5D
1509429901.23,1584,6.19,72684.0,-15.35,-16.23,-16.23,0,*5A
1509429902.46,1585,6.19,72572.0,-15.35,-16.37,-16.37,0,*5B
1509429903.7,1586,6.19,72568.3,-15.37,-16.41,-16.31,0,*5D
1509429904.95,1587,6.19,72588.8,-15.35,-16.51,-16.37,0,*59
1509429906.21,1588,6.19,72614.3,-15.35,-16.65,-16.41,0,*50
1509429907.47,1589,6.19,72614.0,-15.35,-16.69,-16.41,0,*5D
1509429908.71,1590,6.19,72600.0,-15.35,-16.41,-16.37,0,*5E
1509429909.96,1591,6.19,72608.3,-15.35,-16.51,-16.37,0,*5E
1509429911.22,1592,6.19,72612.3,-15.35,-16.37,-16.31,0,*5B
1509429912.48,1593,6.19,72580.8,-15.35,-16.51,-16.37,0,*5C
1509429913.69,1594,6.19,72584.3,-15.37,-16.55,-16.41,0,*5C
1509429914.96,1595,6.19,72582.3,-15.31,-16.41,-16.27,0,*5E
1509429916.22,1596,6.19,72588.0,-15.31,-16.41,-16.27,0,*5D
1509429917.48,1597,6.19,72584.3,-15.35,-16.37,-16.27,0,*59
1509429918.74,1598,6.19,72610.3,-15.35,-16.37,-16.27,0,*56
1509429919.98,1599,6.19,72588.3,-15.35,-16.41,-16.37,0,*57
1509429921.24,1600,6.19,72578.8,-15.35,-16.37,-16.27,0,*54
1509429922.5,1601,6.19,72552.3,-15.35,-16.37,-16.27,0,*55
1509429923.76,1602,6.19,72544.5,-15.35,-16.51,-16.59,0,*5F
1509429925.0,1603,6.19,72556.8,-15.35,-16.41,-16.41,0,*56
1509429926.28,1604,6.19,72548.0,-15.35,-16.51,-16.51,0,*51
1509429927.49,1605,6.19,72550.5,-15.37,-16.55,-16.55,0,*52
1509429928.78,1606,6.19,72556.0,-15.35,-16.69,-16.65,0,*5F
1509429930.06,1607,6.19,72520.0,-15.35,-16.69,-16.65,0,*5E
1509429931.34,1608,6.19,72512.0,-15.35,-16.69,-16.65,0,*51
1509429932.61,1609,6.13,72508.0,-15.35,-16.69,-16.83,0,*58
1509429933.85,1610,6.19,72516.0,-15.35,-16.79,-16.75,0,*58
1509429935.08,1611,6.19,72492.8,-15.37,-16.97,-17.11,0,*58
1509429936.34,1612,6.19,72474.5,-15.37,-17.11,-17.11,0,*54
1509429937.6,1613,6.13,72510.3,-15.37,-17.03,-17.03,0,*55
1509429938.89,1614,6.19,72516.0,-15.35,-17.11,-17.07,0,*57
1509429940.16,1615,6.19,72590.8,-15.37,-17.25,-17.03,0,*57
1509429941.37,1616,6.19,72600.3,-15.37,-17.35,-16.89,0,*56
1509429942.6,1617,6.13,72554.0,-15.37,-17.11,-16.83,0,*5B
1509429943.82,1618,6.19,72602.8,-15.37,-16.89,-16.75,0,*5D
1509429945.06,1619,6.19,72586.0,-15.37,-17.17,-16.83,0,*53
1509429946.35,1620,6.19,72598.5,-15.35,-17.07,-16.69,0,*5E
1509429947.61,1621,6.19,72554.0,-15.35,-16.83,-16.65,0,*5E
1509429948.85,1622,6.19,72578.0,-15.37,-16.69,-16.59,0,*54
1509429950.06,1623,6.19,72578.5,-15.37,-16.55,-16.41,0,*53
1509429951.3,1624,6.19,72596.0,-15.37,-16.69,-16.41,0,*5B
1509429952.52,1625,6.19,72598.0,-15.37,-16.55,-16.41,0,*55
1509429953.72,1626,6.19,72598.5,-15.37,-16.59,-16.45,0,*5E
1509429954.98,1627,6.19,72596.3,-15.35,-16.41,-16.51,0,*51
1509429956.2,1628,6.13,72588.5,-15.37,-16.55,-16.59,0,*51
1509429957.46,1629,6.13,72600.0,-15.35,-16.51,-16.41,0,*5F
1509429958.72,1630,6.13,72602.5,-15.35,-16.65,-16.55,0,*55
1509429959.96,1631,6.13,72584.3,-15.37,-16.75,-16.69,0,*58
1509429961.18,1632,6.19,72582.8,-15.37,-16.75,-16.83,0,*5F
1509429962.42,1633,6.13,72582.3,-15.39,-16.83,-16.59,0,*5E
1509429963.63,1634,6.13,72590.3,-15.37,-16.75,-16.55,0,*52
1509429964.85,1635,6.13,72584.3,-15.37,-16.89,-16.75,0,*52
1509429966.11,1636,6.13,72590.3,-15.35,-16.83,-16.65,0,*58
1509429967.35,1637,6.13,72614.3,-15.37,-16.69,-16.75,0,*5E
1509429968.59,1638,6.13,72616.3,-15.37,-16.55,-16.69,0,*53
1509429969.82,1639,6.19,72610.3,-15.35,-16.79,-16.93,0,*5B
1509429971.1,1640,6.13,72566.5,-15.35,-17.07,-17.21,0,*55
1509429972.38,1641,6.19,72560.5,-15.35,-17.55,-17.55,0,*50
1509429973.65,1642,6.13,72584.0,-15.37,-17.17,-17.45,0,*56
1509429974.89,1643,6.13,72592.5,-15.35,-17.87,-17.83,0,*56
1509429976.13,1644,6.13,72600.3,-15.37,-17.87,-17.63,0,*5D
1509429977.39,1645,6.13,72590.8,-15.37,-18.01,-17.79,0,*56
1509429978.59,1646,6.13,72596.8,-15.37,-18.17,-17.73,0,*58
1509429979.83,1647,6.19,72592.5,-15.37,-17.79,-17.87,0,*55
1509429981.04,1648,6.13,72576.5,-15.37,-17.87,-18.21,0,*58
1509429982.25,1649,6.13,72612.0,-15.37,-18.07,-18.21,0,*5E
1509429983.51,1650,6.13,72630.3,-15.35,-18.11,-18.01,0,*51
1509429984.74,1651,6.19,72624.5,-15.35,-18.45,-18.17,0,*56
1509429985.95,1652,6.19,72618.3,-15.37,-18.49,-18.07,0,*5A
1509429987.21,1653,6.19,72612.3,-15.35,-18.17,-18.01,0,*54
1509429988.47,1654,6.13,72574.0,-15.35,-18.17,-17.97,0,*53
1509429989.71,1655,6.13,72590.8,-15.37,-17.73,-17.59,0,*5F
1509429990.97,1656,6.13,72598.5,-15.37,-17.45,-17.11,0,*55
1509429992.24,1657,6.13,72612.3,-15.37,-17.25,-17.11,0,*52
1509429993.52,1658,6.19,72596.3,-15.39,-17.17,-17.11,0,*52
1509429994.8,1659,6.13,72580.0,-15.41,-17.21,-17.07,0,*5E
1509429996.03,1660,6.13,72586.0,-15.39,-16.83,-16.89,0,*55
1509429997.26,1661,6.13,72590.3,-15.39,-16.89,-16.97,0,*51
1509429998.49,1662,6.13,72602.3,-15.39,-16.89,-16.89,0,*5D
1509429999.73,1663,6.13,72578.8,-15.39,-16.75,-16.59,0,*52
1509430000.97,1664,6.13,72524.5,-15.39,-16.59,-16.55,0,*57
1509430002.21,1665,6.13,72562.8,-15.39,-16.59,-16.55,0,*56
1509430003.47,1666,6.13,72552.3,-15.39,-16.55,-16.69,0,*56
1509430004.75,1667,6.13,72562.5,-15.39,-16.31,-16.31,0,*58
1509430006.03,1668,6.13,72574.0,-15.39,-16.27,-16.23,0,*53
1509430007.31,1669,6.13,72584.8,-15.39,-16.27,-16.27,0,*56
1509430008.57,1670,6.13,72562.3,-15.37,-16.27,-16.27,0,*50
1509430009.86,1671,6.13,72586.3,-15.35,-16.17,-16.17,0,*53
1509430011.14,1672,6.13,72596.8,-15.39,-16.23,-16.23,0,*5C
1509430012.43,1673,6.13,72614.8,-15.35,-16.23,-16.17,0,*56
1509430013.69,1674,6.19,72614.5,-15.37,-16.27,-16.23,0,*50
1509430014.95,1675,6.13,72602.8,-15.37,-16.27,-16.27,0,*55
1509430016.23,1676,6.13,72630.0,-15.35,-16.23,-16.23,0,*54
1509430017.49,1677,6.13,72634.8,-15.37,-16.31,-16.27,0,*50
1509430018.69,1678,6.13,72638.8,-15.37,-16.55,-16.45,0,*59
1509430019.91,1679,6.13,72606.8,-15.37,-16.45,-16.59,0,*54
1509430021.15,1680,6.13,72636.0,-15.35,-16.37,-16.41,0,*5C
1509430022.43,1681,6.13,72634.3,-15.35,-16.51,-16.51,0,*5C
1509430023.69,1682,6.13,72634.5,-15.35,-16.79,-16.69,0,*5E
1509430024.94,1683,6.13,72648.3,-15.35,-17.07,-16.93,0,*52
1509430026.18,1684,6.13,72618.3,-15.35,-16.97,-16.79,0,*59
1509430027.39,1685,6.13,72610.5,-15.37,-16.89,-16.59,0,*57
1509430028.67,1686,6.13,72600.3,-15.35,-16.51,-16.27,0,*5A
1509430029.93,1687,6.13,72594.5,-15.35,-16.37,-16.27,0,*5B
1509430031.19,1688,6.13,72584.8,-15.37,-16.31,-16.31,0,*57
1509430032.44,1689,6.13,72592.3,-15.35,-16.27,-16.41,0,*54
1509430033.73,1690,6.13,72592.5,-15.35,-16.51,-16.51,0,*5C
1509430034.94,1691,6.13,72600.0,-15.37,-16.75,-16.83,0,*56
1509430036.2,1692,6.13,72608.8,-15.35,-16.93,-17.07,0,*52
1509430037.46,1693,6.13,72620.0,-15.35,-17.11,-16.97,0,*50
1509430038.72,1694,6.13,72628.3,-15.35,-17.07,-16.83,0,*55
1509430039.97,1695,6.13,72614.8,-15.35,-16.93,-16.69,0,*5C
1509430041.21,1696,6.13,72606.3,-15.37,-16.69,-16.55,0,*57
1509430042.47,1697,6.13,72596.8,-15.37,-16.31,-16.31,0,*59
1509430043.75,1698,6.13,72608.0,-15.35,-16.27,-16.27,0,*54
1509430044.98,1699,6.13,72584.5,-15.37,-16.31,-16.41,0,*50
1509430046.24,1700,6.13,72576.8,-15.35,-16.37,-16.27,0,*55
1509430047.48,1701,6.13,72576.8,-15.37,-16.41,-16.31,0,*50
1509430048.74,1702,6.13,72554.8,-15.35,-16.37,-16.27,0,*57
1509430050.03,1703,6.13,72544.8,-15.35,-16.27,-16.17,0,*54
1509430051.29,1704,6.13,72554.3,-15.35,-16.17,-16.03,0,*55
1509430052.55,1705,6.13,72564.5,-15.35,-16.09,-16.03,0,*5B
1509430053.81,1706,6.13,72576.8,-15.35,-16.09,-16.03,0,*58
1509430055.1,1707,6.13,72490.0,-15.35,-16.23,-16.09,0,*5B
1509430056.39,1708,6.13,72546.8,-15.35,-16.09,-16.09,0,*5C
1509430057.62,1709,6.13,72534.3,-15.35,-16.03,-16.03,0,*5D
1509430058.86,1710,6.13,72550.3,-15.31,-16.03,-16.03,0,*51
1509430060.13,1711,6.13,72600.5,-15.31,-16.09,-16.03,0,*5A
1509430061.42,1712,6.13,72578.5,-15.31,-16.23,-16.17,0,*54
1509430062.7,1713,6.13,72592.3,-15.31,-16.23,-16.23,0,*52
1509430063.99,1714,6.13,72588.3,-15.31,-16.17,-16.09,0,*5A
1509430065.29,1715,6.13,72554.0,-15.31,-16.17,-16.09,0,*5B
1509430066.58,1716,6.13,72550.0,-15.31,-16.09,-16.17,0,*58
1509430067.87,1717,6.13,72562.3,-15.31,-16.17,-16.09,0,*59
1509430069.14,1718,6.13,72552.0,-15.31,-16.17,-16.03,0,*5C
1509430070.43,1719,6.13,72608.3,-15.31,-16.09,-16.09,0,*58
1509430071.7,1720,6.13,72586.3,-15.31,-16.09,-15.95,0,*54
1509430072.99,1721,6.13,72572.0,-15.31,-16.17,-16.09,0,*5C
1509430074.2,1722,6.13,72522.5,-15.29,-16.03,-16.03,0,*59
1509430075.5,1723,6.13,72576.5,-15.31,-16.09,-16.09,0,*51
1509430076.71,1724,6.13,72582.5,-15.29,-16.03,-16.03,0,*5F
1509430078.0,1725,6.13,72584.5,-15.31,-16.17,-16.09,0,*58
1509430079.2,1726,6.13,72582.8,-15.29,-15.99,-15.99,0,*5D
1509430080.47,1727,6.13,72556.0,-15.29,-16.09,-16.13,0,*57
1509430081.74,1728,6.13,72580.3,-15.29,-16.13,-16.17,0,*57
1509430083.03,1729,6.13,72564.0,-15.31,-16.17,-16.09,0,*54
1509430084.32,1730,6.13,72544.0,-15.31,-16.23,-16.23,0,*53
1509430085.61,1731,6.13,72586.5,-15.31,-16.17,-16.17,0,*52
1509430086.91,1732,6.13,72570.8,-15.31,-16.09,-16.09,0,*51
1509430088.17,1733,6.13,72582.8,-15.29,-16.13,-16.13,0,*59
1509430089.41,1734,6.13,72610.0,-15.29,-16.03,-16.13,0,*5F
1509430090.67,1735,6.13,72608.8,-15.31,-16.03,-16.17,0,*53
1509430091.91,1736,6.13,72602.5,-15.29,-16.09,-16.03,0,*56
1509430093.21,1737,6.13,72638.5,-15.31,-16.09,-16.09,0,*54
1509430094.41,1738,6.13,72634.3,-15.29,-16.03,-15.99,0,*52
1509430095.65,1739,6.13,72634.8,-15.29,-16.03,-15.89,0,*52
1509430096.85,1740,6.13,72646.0,-15.29,-15.99,-15.99,0,*5D
1509430098.06,1741,6.13,72632.5,-15.29,-16.03,-16.03,0,*5C
1509430099.26,1742,6.13,72610.5,-15.29,-15.99,-16.03,0,*5F
1509430100.5,1743,6.13,72600.8,-15.29,-16.13,-16.03,0,*5F
1509430101.77,1744,6.13,72596.8,-15.31,-16.09,-16.03,0,*5A
1509430103.03,1745,6.13,72572.0,-15.31,-16.17,-16.03,0,*54
1509430104.27,1746,6.13,72580.5,-15.29,-16.17,-16.03,0,*5E
1509430105.51,1747,6.13,72602.3,-15.29,-16.13,-16.03,0,*5B
1509430106.78,1748,6.13,72626.5,-15.29,-16.13,-16.17,0,*51
1509430107.98,1749,6.13,72608.3,-15.29,-16.03,-16.03,0,*54
1509430109.19,1750,6.13,72620.8,-15.29,-16.03,-16.03,0,*5C